SCP
0 0 0 0 0 0 0 0 0 0 0 0 -0 -0 -0 -0 -0 -0 -0 -0 -0 -0 -0 -0 -0 -0 0 0 -0 0 0 0 0 0 0 0 0 0 0 0 0 0 0 0 0 0 0
0 0 0 0 0 0 -0 -0 0 0 0 0 -0 -0 -0 -0 -0 -0 -0 -0 -0 -0 -0 -0 -0 0 0 0 0 0 0 0 -0 0 0 0 0 0 0 0 0 0 0 0 0 0 0
0 0 0 0 0 0 -0 -0 -0 -0 -0 -0 -0 -0 -0 -0 -0 -0 -0 -0 -0 -0 -0 -0 0 0 0 0 0 0 -0 0 0 0 0 0 0 0 0 0 0 0 0 0 0 0 0
-0 0 0 0 0 -0 -0 -0 -0 -0 -0 -0 -0 -0 -0 -0 -0 -0 -0 -0 -0 -0 -0 0 0 0 0 0 0 0 0 0 0 0 0 0 0 0 0 0 0 0 0 0 0 0 0
-0 -0 -0 -0 0 0 -0 -0 -0 -0 -0 -0 -0 -0 -0 -0 -0 -0 -0 -0 -0 -0 -0 -0 -0 0 -0 0 0 0 0 0 0 0 0 0 0 0 0 0 0 0 0 0 0 0 0
0 -0 -0 -0 0 0 -0 -0 -0 -0 -0 -0 -0 -0 -0 -0 -0 -0 -0 -0 0 0 0 -0 -0 0 -0 0 0 0 -0 0 -0 0 0 0 0 0 0 0 0 0 0 0 0 0 0
0 0 0 0 0 -0 -0 -0 -0 -0 -0 -0 -0 -0 -0 -0 0 -0 0 0 0 0 0 0 0 0 -0 0 0 0 0 0 0 0 0 0 0 0 0 0 0 0 0 0 0 0 0
0 0 0 0 0 0 -0 -0 -0 -0 -0 -0 -0 -0 -0 -0 0 -0 0 0 0 0 0 -0 -0 -0 -0 -0 0 0 0 0 0 0 0 0 0 0 0 0 0 0 0 0 0 0 0
0 0 0 0 0 0 0 -0 -0 -0 -0 -0 -0 -0 -0 -0 -0 0 0 0 -0 0 0 0 0 0 0 0 0 0 0 0 0 0 0 0 0 -0 -0 0 0 0 0 0 0 0 0
0 0 0 0 0 0 0 0 -0 -0 -0 -0 -0 -0 -0 -0 0 0 0 0 0 0 0 0 0 0 0 0 0 0 -0 0 0 0 0 0 0 -0 -0 0 0 0 0 0 0 0 0
0 0 0 0 0 0 0 0 -0 -0 -0 -0 -0 -0 -0 -0 0 0 0 0 0 0 0 0 0 0 0 0 0 0 0 0 0 0 0 0 0 -0 0 0 0 0 0 0 0 0 0
0 0 0 0 0 0 0 -0 0 0 -0 -0 -0 -0 0 0 0 0 0 -0 0 0 0 0 0 0 0 0 0 0 0 0 0 0 0 0 0 0 0 -0 0 0 0 0 0 0 0
0 0 0 0 0 -0 0 0 -0 -0 -0 -0 -0 -0 0 0 0 0 0 0 0 0 -0 0 0 0 0 0 0 0 0 0 0 0 0 0 0 0 0 0 0 0 -0 0 0 0 0
0 0 0 0 0 0 0 0 0 0 -0 -0 -0 -0 0 0 0 0 0 0 0 0 -0 0 0 0 0 0 0 0 0 0 0 0 0 0 0 0 0 0 0 0 0 0 0 0 0
0 0 0 0 0 0 0 0 0 0 0 -0 -0 0 0 0 -0 -0 0 0 0 0 -0 -0 0 0 0 0 0 0 0 0 0 0 0 0 0 0 0 0 0 0 0 0 0 0 0
0 0 0 0 0 0 0 0 -0 -0 0 -0 0 0 0 0 0 0 0 0 0 0 -0 0 0 0 -0 0 0 0 0 0 0 0 0 0 0 0 0 0 0 0 0 0 0 0 0
0 0 0 0 0 0 0 0 0 -0 0 0 0 0 0 0 0 0 0 0 0 0 0 0 0 0 0 0 0 0 0 0 0 0 0 0 0 0 0 0 0 0 0 0 0 0 0
0 0 0 0 0 0 0 0 0 -0 -0 -0 0 0 0 0 0 0 0 0 -0 0 0 0 0 0 0 0 0 0 0 0 0 0 0 0 0 0 0 0 0 0 0 -0 0 0 0
0 0 0 0 0 0 0 0 0 -0 -0 -0 0 0 0 0 0 0 0 0 0 0 0 0 0 0 0 0 0 0 0 0 0 0 0 0 0 0 0 0 0 0 0 0 -0 -0 -0
0 0 0 0 0 0 0 0 0 0 0 0 0 0 0 0 0 0 0 0 0 0 0 0 0 0 0 0 0 0 0 0 -0 0 0 0 0 0 0 0 0 0 0 0 0 0 0
0 0 0 0 0 0 0 0 0 -0 0 0 0 0 0 0 0 0 0 0 0 0 0 0 0 0 0 0 0 0 0 0 0 0 0 0 0 0 0 0 0 0 0 0 0 0 0
0 0 0 0 0 0 0 0 0 0 0 0 0 0 0 0 0 0 0 0 0 0 0 0 0 0 0 0 0 0 0 0 0 0 0 0 0 0 0 0 0 0 -0 -0 0 0 0
0 0 0 0 0 0 0 0 0 0 0 0 0 0 0 0 0 0 0 0 0 0 0 0 0 0 0 0 0 0 0 0 0 0 0 0 0 0 0 0 0 0 0 0 0 0 0
0 0 0 0 0 0 0 0 0 0 0 0 0 0 0 0 0 0 0 0 0 0 0 0 0 0 0 0 0 -0 0 0 0 0 0 0 0 0 0 0 0 0 -0 0 0 0 0
0 0 0 0 0 0 0 0 0 0 0 0 0 0 0 0 0 0 0 0 0 0 0 0 0 0 0 0 0 0 0 0 0 0 0 0 0 0 0 0 0 0 0 0 0 0 0
0 0 0 0 0 0 0 0 0 0 0 0 0 0 0 0 0 0 0 0 0 0 0 0 0 0 0 0 0 0 0 0 0 0 0 0 0 0 0 0 0 0 0 0 0 0 0
0 0 0 0 0 0 0 0 0 0 0 0 0 0 0 0 0 0 0 0 0 0 0 0 0 0 0 0 0 0 0 0 0 0 0 0 0 0 0 0 0 0 0 -0 0 0 0
0 0 0 0 0 0 0 0 0 0 0 0 0 0 0 0 0 0 0 0 0 0 0 -0 0 0 0 0 0 0 0 0 0 0 0 0 0 0 0 0 0 0 0 -0 0 0 0
0 0 0 0 0 0 0 0 0 0 0 0 0 0 0 0 0 0 0 0 0 0 0 0 0 0 0 0 0 0 0 0 0 0 0 0 0 0 0 0 0 0 0 0 0 0 0
Wind_Speed_500mb
57 55 54 53 52 53 56 59 56 50 49 47 46 40 32 26 17 21 21 19 16 14 12 13 15 16 15 11 21 15 7 3 3 8 8 16 22 29 16 17 40 19 19 52 61 70 68
59 56 53 53 53 54 55 56 59 60 52 46 44 39 31 24 20 17 16 15 14 11 9 10 12 13 12 12 7 11 15 9 4 4 11 23 20 27 10 16 13 31 39 38 49 52 55
57 60 56 54 54 57 58 59 59 58 58 52 43 37 31 23 18 14 13 13 12 10 8 8 9 12 19 34 6 6 12 5 4 12 21 14 26 14 33 19 32 40 22 24 27 24 18
54 57 61 60 59 58 59 61 61 61 56 55 49 35 27 23 16 13 10 13 13 7 5 4 6 9 19 2 12 27 19 13 15 15 18 26 20 20 25 33 36 16 16 13 14 17 36
51 54 57 61 62 62 60 60 62 62 59 56 50 39 25 17 14 16 13 12 15 10 4 4 5 10 20 9 25 24 28 28 25 27 17 18 17 22 29 12 12 9 17 22 33 30 31
52 52 54 57 60 62 63 62 61 59 59 55 52 40 27 15 14 17 17 13 18 11 6 13 13 17 15 14 30 18 25 27 28 26 20 28 23 10 9 6 12 16 18 18 25 33 27
50 55 55 57 59 61 62 64 63 60 58 55 50 42 26 14 12 14 20 16 16 2 15 22 17 21 28 11 13 11 17 30 23 24 9 32 7 13 26 27 30 31 28 33 34 26 15
44 50 54 56 58 61 62 63 65 62 57 54 49 42 30 15 13 8 17 16 20 27 35 38 55 58 49 37 15 22 20 26 22 16 21 12 19 28 30 35 28 25 25 33 29 22 25
43 47 51 55 57 58 62 63 64 65 61 54 49 38 31 19 17 17 22 17 27 32 13 38 42 41 45 29 34 34 34 34 20 16 18 16 19 32 33 25 26 22 17 19 25 19 29
43 41 47 52 55 59 60 63 64 64 64 59 50 41 29 23 23 26 35 21 27 33 7 12 14 15 24 23 14 40 34 35 19 26 23 18 23 30 29 25 27 31 14 24 31 26 12
42 45 44 47 53 57 60 63 64 65 66 64 56 45 29 25 22 19 18 30 29 14 8 18 15 22 22 26 18 32 28 30 18 22 15 25 25 27 29 30 33 29 20 22 30 13 9
42 44 48 47 51 57 60 64 66 66 69 69 61 52 35 19 21 16 28 34 21 3 11 14 18 19 16 34 32 34 33 36 34 15 20 25 45 27 23 27 21 36 41 16 13 5 9
42 41 46 48 48 53 59 65 67 68 69 74 66 50 35 25 24 8 27 20 4 7 16 8 1 0 6 14 19 23 28 22 17 15 24 36 36 10 21 11 20 23 18 13 14 8 20
45 44 44 47 48 48 54 64 69 70 70 74 68 45 26 10 12 6 18 6 8 20 27 15 17 25 19 26 28 32 25 20 11 13 19 12 14 15 9 7 8 2 12 8 13 6 12
43 49 44 45 47 51 47 62 72 73 73 74 68 42 16 4 15 5 6 5 9 11 31 20 19 17 16 32 22 22 24 12 11 15 11 10 15 24 8 14 7 10 11 23 17 10 11
46 46 44 46 48 44 44 57 76 81 77 73 70 36 21 13 11 12 4 10 11 24 25 22 11 16 23 25 27 25 17 15 12 15 14 13 12 6 14 11 16 8 6 5 4 7 9
49 46 45 46 47 47 47 54 68 80 79 70 48 22 15 14 13 10 6 11 25 39 33 4 13 24 23 25 25 28 22 28 16 9 9 6 7 4 11 8 12 3 4 3 7 5 7
43 46 46 46 48 48 46 44 59 78 75 60 33 7 15 21 5 11 8 16 36 39 41 22 11 12 17 18 15 22 29 20 41 1 6 5 8 5 12 19 23 12 7 11 4 6 8
37 38 43 44 49 50 44 44 48 75 72 70 49 22 8 16 7 9 20 23 27 26 30 23 8 18 19 13 12 11 26 33 34 10 5 12 5 8 13 9 4 5 7 8 7 7 10
34 33 38 40 46 50 47 48 57 58 54 60 20 8 28 21 26 17 18 18 22 35 31 25 10 8 13 17 21 13 23 25 36 24 21 13 5 10 12 20 16 4 16 17 14 7 10
37 38 44 49 51 49 45 47 58 72 43 35 12 11 25 10 18 32 25 19 21 30 21 34 14 21 24 18 24 21 26 27 26 16 12 11 10 13 20 29 29 30 33 33 21 30 15
48 48 51 47 44 41 41 52 67 61 45 30 15 14 27 40 30 25 23 15 22 32 27 16 15 18 18 14 15 19 17 12 8 12 13 11 8 12 15 21 30 36 32 33 30 34 21
51 51 47 46 45 40 44 54 55 47 36 17 17 31 21 16 17 18 14 25 29 34 20 47 31 16 20 24 31 33 35 29 18 12 10 8 6 9 12 19 31 18 13 20 10 8 4
49 48 48 45 48 44 46 45 50 37 35 26 27 17 8 9 11 18 30 33 26 34 38 46 41 16 14 21 35 44 44 40 32 21 24 10 9 3 9 12 7 11 25 13 17 16 18
42 46 49 50 51 48 48 45 40 31 29 22 24 9 6 7 18 28 24 25 29 46 30 39 43 7 21 17 7 10 8 4 8 18 16 17 5 3 2 5 20 15 14 21 8 5 23
32 38 45 51 55 49 48 42 27 23 26 27 20 20 13 10 10 16 28 14 13 17 18 22 17 12 8 3 6 8 6 11 2 6 4 12 15 8 4 6 7 14 25 39 14 9 35
36 36 39 43 49 47 44 32 20 19 25 28 25 18 14 11 31 21 11 13 14 22 10 21 30 12 3 4 3 5 6 13 4 7 0 3 3 10 10 10 11 24 25 32 6 12 45
36 35 34 33 37 33 40 29 18 19 23 28 30 19 21 13 45 34 23 27 27 31 9 26 21 14 8 4 4 5 4 7 8 10 3 8 6 5 7 7 5 29 12 13 14 30 42
30 33 34 33 31 26 33 28 22 20 21 26 27 21 20 35 35 53 63 54 65 62 37 12 18 10 8 5 7 7 5 6 7 5 11 6 8 5 5 8 10 28 21 18 35 44 48
Wind_Direction_500mb
15 16 14 13 12 8 2 359 359 359 355 349 340 333 329 323 325 327 329 327 325 320 305 289 278 289 314 309 266 248 219 317 235 119 175 215 231 241 228 238 253 255 254 250 250 247 254
17 15 13 11 10 9 7 4 1 356 359 358 351 341 333 329 328 333 338 343 339 330 310 287 268 274 288 260 261 248 294 253 163 297 298 275 284 304 292 292 270 272 275 270 273 264 258
15 14 14 11 9 8 8 7 5 3 359 2 2 353 345 337 336 343 350 353 348 337 319 282 258 263 266 242 227 259 328 292 284 281 287 276 319 314 319 323 300 313 300 297 284 282 282
11 14 13 13 9 8 7 6 6 5 4 1 0 1 355 346 346 348 355 0 359 344 303 259 240 274 263 187 237 238 238 241 259 264 272 288 309 317 301 296 302 311 308 296 286 293 272
9 9 12 12 12 8 7 5 5 4 3 3 1 358 359 360 356 350 336 334 349 347 312 249 244 268 267 288 224 230 224 243 251 244 246 267 279 296 292 297 302 276 260 269 279 247 254
360 4 5 8 10 10 8 5 2 4 2 360 0 358 354 359 356 351 336 309 316 298 292 268 222 291 255 268 241 223 220 236 256 279 236 245 244 230 269 222 252 264 267 255 251 266 260
357 357 0 2 3 5 7 7 3 0 360 359 356 354 350 343 355 353 347 339 346 325 226 227 235 243 294 276 242 216 240 224 241 275 267 277 235 232 241 233 235 246 263 274 280 289 319
355 354 354 357 359 358 1 4 4 360 357 355 353 350 346 331 328 327 335 326 353 311 294 270 261 252 258 270 263 253 222 242 204 225 247 267 244 246 252 259 257 262 272 287 293 315 313
349 351 351 351 354 355 355 358 1 360 356 353 348 341 342 323 317 317 306 304 343 327 292 293 240 236 235 230 247 252 210 222 229 253 263 253 265 280 278 276 288 268 257 288 281 282 281
339 345 346 347 348 350 352 353 356 357 355 352 346 337 324 321 311 316 310 339 322 323 299 262 166 210 218 186 259 234 238 211 221 239 252 252 269 279 287 296 291 287 287 295 288 288 259
332 336 341 343 343 345 348 348 350 352 352 349 345 332 317 306 308 313 360 336 321 331 315 147 154 145 180 174 293 196 210 233 249 254 262 271 288 292 297 296 300 285 249 260 274 277 347
327 330 332 337 341 342 344 345 345 347 348 345 345 329 313 271 266 354 324 323 318 310 254 191 146 189 193 206 226 245 189 211 229 242 248 261 272 274 289 331 353 329 339 270 264 212 274
318 325 327 330 336 340 341 343 342 343 346 341 345 329 313 251 247 347 347 326 335 223 303 66 54 34 299 309 276 241 225 209 201 226 237 238 241 294 345 333 320 352 350 330 280 258 246
314 318 323 326 330 337 343 342 340 341 344 340 345 335 331 285 213 14 330 337 251 278 301 5 1 343 319 291 285 280 264 260 275 312 321 297 314 280 156 200 180 290 155 184 275 247 285
310 312 320 323 326 331 349 345 341 342 342 342 341 336 308 53 142 111 305 269 250 280 321 337 347 302 313 329 340 350 350 294 339 6 341 355 294 322 241 107 230 216 167 206 239 261 282
304 308 314 318 321 328 346 358 344 341 341 344 341 339 308 226 152 201 197 243 280 282 335 4 345 313 316 330 331 333 314 323 3 48 57 338 322 304 345 173 229 213 32 339 117 228 236
304 306 310 313 315 322 327 352 347 338 337 343 347 335 194 170 220 196 222 248 279 324 340 299 302 303 297 304 301 294 293 316 3 15 357 126 98 336 345 236 294 257 27 351 301 189 251
305 307 310 310 310 315 322 339 342 338 337 342 352 311 254 195 212 216 237 279 330 338 327 345 309 275 290 310 311 319 308 310 318 291 328 76 142 244 231 281 50 47 152 147 153 335 294
299 306 305 309 311 313 320 329 336 333 341 342 331 291 305 214 259 286 306 331 343 323 340 320 278 319 329 330 328 293 298 301 312 278 152 162 260 329 325 290 359 122 219 175 175 177 234
302 305 305 309 307 309 312 325 329 330 322 340 323 301 347 284 288 6 343 320 316 324 303 322 318 336 320 301 295 286 319 312 309 344 130 117 201 215 247 258 268 223 235 217 166 162 221
302 304 305 304 300 302 313 321 325 329 325 331 307 301 339 310 333 322 312 294 326 315 359 2 354 341 325 313 311 312 313 321 331 136 156 145 220 265 288 298 297 294 289 286 240 228 225
291 299 305 301 299 302 308 319 325 324 324 315 295 338 331 306 307 324 310 333 340 330 336 326 300 304 305 286 285 304 331 338 299 335 353 333 294 303 293 313 300 290 290 283 278 280 289
284 291 296 295 294 299 306 315 315 322 330 323 277 283 330 295 312 292 316 335 325 320 331 330 320 324 309 301 321 317 308 289 256 283 295 292 319 338 283 311 323 308 304 321 268 320 135
278 284 289 291 289 290 299 308 314 316 323 300 320 303 281 277 290 295 311 307 321 325 306 298 286 260 321 333 317 304 277 259 254 246 231 246 278 272 290 327 247 253 15 24 8 334 38
285 280 285 288 287 289 294 302 310 307 324 322 313 246 265 280 321 302 320 325 327 297 304 311 305 63 330 336 303 286 294 82 333 228 224 196 162 28 226 266 286 295 16 9 10 10 30
302 293 285 284 286 289 294 306 304 304 304 321 313 277 242 297 253 312 329 314 321 322 307 323 2 7 14 276 260 265 276 294 187 266 83 57 113 133 292 269 258 33 1 339 287 248 360
294 296 295 286 284 289 294 305 291 287 284 297 313 278 241 253 279 301 289 306 291 285 288 290 343 341 215 274 294 259 275 340 353 159 116 46 42 215 215 242 277 8 353 333 19 317 346
294 296 296 289 286 289 286 300 286 273 283 280 311 304 236 252 282 284 273 273 273 283 275 329 326 11 318 289 322 331 341 335 338 328 22 166 209 210 233 236 286 8 16 359 271 311 324
301 297 299 289 283 281 281 291 288 264 275 265 302 313 258 241 262 283 282 267 257 260 270 295 301 318 328 355 7 333 340 330 347 294 342 91 169 214 233 260 77 5 312 332 334 328 321
Wind_Speed_850mb
57 55 54 53 52 53 56 59 56 50 49 47 46 40 32 26 17 21 21 19 16 14 12 13 15 16 15 11 21 15 7 3 3 8 8 16 22 29 16 17 40 19 19 52 61 70 68
59 56 53 53 53 54 55 56 59 60 52 46 44 39 31 24 20 17 16 15 14 11 9 10 12 13 12 12 7 11 15 9 4 4 11 23 20 27 10 16 13 31 39 38 49 52 55
57 60 56 54 54 57 58 59 59 58 58 52 43 37 31 23 18 14 13 13 12 10 8 8 9 12 19 34 6 6 12 5 4 12 21 14 26 14 33 19 32 40 22 24 27 24 18
54 57 61 60 59 58 59 61 61 61 56 55 49 35 27 23 16 13 10 13 13 7 5 4 6 9 19 2 12 27 19 13 15 15 18 26 20 20 25 33 36 16 16 13 14 17 36
51 54 57 61 62 62 60 60 62 62 59 56 50 39 25 17 14 16 13 12 15 10 4 4 5 10 20 9 25 24 28 28 25 27 17 18 17 22 29 12 12 9 17 22 33 30 31
52 52 54 57 60 62 63 62 61 59 59 55 52 40 27 15 14 17 17 13 18 11 6 13 13 17 15 14 30 18 25 27 28 26 20 28 23 10 9 6 12 16 18 18 25 33 27
50 55 55 57 59 61 62 64 63 60 58 55 50 42 26 14 12 14 20 16 16 2 15 22 17 21 28 11 13 11 17 30 23 24 9 32 7 13 26 27 30 31 28 33 34 26 15
44 50 54 56 58 61 62 63 65 62 57 54 49 42 30 15 13 8 17 16 20 27 35 38 55 58 49 37 15 22 20 26 22 16 21 12 19 28 30 35 28 25 25 33 29 22 25
43 47 51 55 57 58 62 63 64 65 61 54 49 38 31 19 17 17 22 17 27 32 13 38 42 41 45 29 34 34 34 34 20 16 18 16 19 32 33 25 26 22 17 19 25 19 29
43 41 47 52 55 59 60 63 64 64 64 59 50 41 29 23 23 26 35 21 27 33 7 12 14 15 24 23 14 40 34 35 19 26 23 18 23 30 29 25 27 31 14 24 31 26 12
42 45 44 47 53 57 60 63 64 65 66 64 56 45 29 25 22 19 18 30 29 14 8 18 15 22 22 26 18 32 28 30 18 22 15 25 25 27 29 30 33 29 20 22 30 13 9
42 44 48 47 51 57 60 64 66 66 69 69 61 52 35 19 21 16 28 34 21 3 11 14 18 19 16 34 32 34 33 36 34 15 20 25 45 27 23 27 21 36 41 16 13 5 9
42 41 46 48 48 53 59 65 67 68 69 74 66 50 35 25 24 8 27 20 4 7 16 8 1 0 6 14 19 23 28 22 17 15 24 36 36 10 21 11 20 23 18 13 14 8 20
45 44 44 47 48 48 54 64 69 70 70 74 68 45 26 10 12 6 18 6 8 20 27 15 17 25 19 26 28 32 25 20 11 13 19 12 14 15 9 7 8 2 12 8 13 6 12
43 49 44 45 47 51 47 62 72 73 73 74 68 42 16 4 15 5 6 5 9 11 31 20 19 17 16 32 22 22 24 12 11 15 11 10 15 24 8 14 7 10 11 23 17 10 11
46 46 44 46 48 44 44 57 76 81 77 73 70 36 21 13 11 12 4 10 11 24 25 22 11 16 23 25 27 25 17 15 12 15 14 13 12 6 14 11 16 8 6 5 4 7 9
49 46 45 46 47 47 47 54 68 80 79 70 48 22 15 14 13 10 6 11 25 39 33 4 13 24 23 25 25 28 22 28 16 9 9 6 7 4 11 8 12 3 4 3 7 5 7
43 46 46 46 48 48 46 44 59 78 75 60 33 7 15 21 5 11 8 16 36 39 41 22 11 12 17 18 15 22 29 20 41 1 6 5 8 5 12 19 23 12 7 11 4 6 8
37 38 43 44 49 50 44 44 48 75 72 70 49 22 8 16 7 9 20 23 27 26 30 23 8 18 19 13 12 11 26 33 34 10 5 12 5 8 13 9 4 5 7 8 7 7 10
34 33 38 40 46 50 47 48 57 58 54 60 20 8 28 21 26 17 18 18 22 35 31 25 10 8 13 17 21 13 23 25 36 24 21 13 5 10 12 20 16 4 16 17 14 7 10
37 38 44 49 51 49 45 47 58 72 43 35 12 11 25 10 18 32 25 19 21 30 21 34 14 21 24 18 24 21 26 27 26 16 12 11 10 13 20 29 29 30 33 33 21 30 15
48 48 51 47 44 41 41 52 67 61 45 30 15 14 27 40 30 25 23 15 22 32 27 16 15 18 18 14 15 19 17 12 8 12 13 11 8 12 15 21 30 36 32 33 30 34 21
51 51 47 46 45 40 44 54 55 47 36 17 17 31 21 16 17 18 14 25 29 34 20 47 31 16 20 24 31 33 35 29 18 12 10 8 6 9 12 19 31 18 13 20 10 8 4
49 48 48 45 48 44 46 45 50 37 35 26 27 17 8 9 11 18 30 33 26 34 38 46 41 16 14 21 35 44 44 40 32 21 24 10 9 3 9 12 7 11 25 13 17 16 18
42 46 49 50 51 48 48 45 40 31 29 22 24 9 6 7 18 28 24 25 29 46 30 39 43 7 21 17 7 10 8 4 8 18 16 17 5 3 2 5 20 15 14 21 8 5 23
32 38 45 51 55 49 48 42 27 23 26 27 20 20 13 10 10 16 28 14 13 17 18 22 17 12 8 3 6 8 6 11 2 6 4 12 15 8 4 6 7 14 25 39 14 9 35
36 36 39 43 49 47 44 32 20 19 25 28 25 18 14 11 31 21 11 13 14 22 10 21 30 12 3 4 3 5 6 13 4 7 0 3 3 10 10 10 11 24 25 32 6 12 45
36 35 34 33 37 33 40 29 18 19 23 28 30 19 21 13 45 34 23 27 27 31 9 26 21 14 8 4 4 5 4 7 8 10 3 8 6 5 7 7 5 29 12 13 14 30 42
30 33 34 33 31 26 33 28 22 20 21 26 27 21 20 35 35 53 63 54 65 62 37 12 18 10 8 5 7 7 5 6 7 5 11 6 8 5 5 8 10 28 21 18 35 44 48
Wind_Direction_850mb
15 16 14 13 12 8 2 359 359 359 355 349 340 333 329 323 325 327 329 327 325 320 305 289 278 289 314 309 266 248 219 317 235 119 175 215 231 241 228 238 253 255 254 250 250 247 254
17 15 13 11 10 9 7 4 1 356 359 358 351 341 333 329 328 333 338 343 339 330 310 287 268 274 288 260 261 248 294 253 163 297 298 275 284 304 292 292 270 272 275 270 273 264 258
15 14 14 11 9 8 8 7 5 3 359 2 2 353 345 337 336 343 350 353 348 337 319 282 258 263 266 242 227 259 328 292 284 281 287 276 319 314 319 323 300 313 300 297 284 282 282
11 14 13 13 9 8 7 6 6 5 4 1 0 1 355 346 346 348 355 0 359 344 303 259 240 274 263 187 237 238 238 241 259 264 272 288 309 317 301 296 302 311 308 296 286 293 272
9 9 12 12 12 8 7 5 5 4 3 3 1 358 359 360 356 350 336 334 349 347 312 249 244 268 267 288 224 230 224 243 251 244 246 267 279 296 292 297 302 276 260 269 279 247 254
360 4 5 8 10 10 8 5 2 4 2 360 0 358 354 359 356 351 336 309 316 298 292 268 222 291 255 268 241 223 220 236 256 279 236 245 244 230 269 222 252 264 267 255 251 266 260
357 357 0 2 3 5 7 7 3 0 360 359 356 354 350 343 355 353 347 339 346 325 226 227 235 243 294 276 242 216 240 224 241 275 267 277 235 232 241 233 235 246 263 274 280 289 319
355 354 354 357 359 358 1 4 4 360 357 355 353 350 346 331 328 327 335 326 353 311 294 270 261 252 258 270 263 253 222 242 204 225 247 267 244 246 252 259 257 262 272 287 293 315 313
349 351 351 351 354 355 355 358 1 360 356 353 348 341 342 323 317 317 306 304 343 327 292 293 240 236 235 230 247 252 210 222 229 253 263 253 265 280 278 276 288 268 257 288 281 282 281
339 345 346 347 348 350 352 353 356 357 355 352 346 337 324 321 311 316 310 339 322 323 299 262 166 210 218 186 259 234 238 211 221 239 252 252 269 279 287 296 291 287 287 295 288 288 259
332 336 341 343 343 345 348 348 350 352 352 349 345 332 317 306 308 313 360 336 321 331 315 147 154 145 180 174 293 196 210 233 249 254 262 271 288 292 297 296 300 285 249 260 274 277 347
327 330 332 337 341 342 344 345 345 347 348 345 345 329 313 271 266 354 324 323 318 310 254 191 146 189 193 206 226 245 189 211 229 242 248 261 272 274 289 331 353 329 339 270 264 212 274
318 325 327 330 336 340 341 343 342 343 346 341 345 329 313 251 247 347 347 326 335 223 303 66 54 34 299 309 276 241 225 209 201 226 237 238 241 294 345 333 320 352 350 330 280 258 246
314 318 323 326 330 337 343 342 340 341 344 340 345 335 331 285 213 14 330 337 251 278 301 5 1 343 319 291 285 280 264 260 275 312 321 297 314 280 156 200 180 290 155 184 275 247 285
310 312 320 323 326 331 349 345 341 342 342 342 341 336 308 53 142 111 305 269 250 280 321 337 347 302 313 329 340 350 350 294 339 6 341 355 294 322 241 107 230 216 167 206 239 261 282
304 308 314 318 321 328 346 358 344 341 341 344 341 339 308 226 152 201 197 243 280 282 335 4 345 313 316 330 331 333 314 323 3 48 57 338 322 304 345 173 229 213 32 339 117 228 236
304 306 310 313 315 322 327 352 347 338 337 343 347 335 194 170 220 196 222 248 279 324 340 299 302 303 297 304 301 294 293 316 3 15 357 126 98 336 345 236 294 257 27 351 301 189 251
305 307 310 310 310 315 322 339 342 338 337 342 352 311 254 195 212 216 237 279 330 338 327 345 309 275 290 310 311 319 308 310 318 291 328 76 142 244 231 281 50 47 152 147 153 335 294
299 306 305 309 311 313 320 329 336 333 341 342 331 291 305 214 259 286 306 331 343 323 340 320 278 319 329 330 328 293 298 301 312 278 152 162 260 329 325 290 359 122 219 175 175 177 234
302 305 305 309 307 309 312 325 329 330 322 340 323 301 347 284 288 6 343 320 316 324 303 322 318 336 320 301 295 286 319 312 309 344 130 117 201 215 247 258 268 223 235 217 166 162 221
302 304 305 304 300 302 313 321 325 329 325 331 307 301 339 310 333 322 312 294 326 315 359 2 354 341 325 313 311 312 313 321 331 136 156 145 220 265 288 298 297 294 289 286 240 228 225
291 299 305 301 299 302 308 319 325 324 324 315 295 338 331 306 307 324 310 333 340 330 336 326 300 304 305 286 285 304 331 338 299 335 353 333 294 303 293 313 300 290 290 283 278 280 289
284 291 296 295 294 299 306 315 315 322 330 323 277 283 330 295 312 292 316 335 325 320 331 330 320 324 309 301 321 317 308 289 256 283 295 292 319 338 283 311 323 308 304 321 268 320 135
278 284 289 291 289 290 299 308 314 316 323 300 320 303 281 277 290 295 311 307 321 325 306 298 286 260 321 333 317 304 277 259 254 246 231 246 278 272 290 327 247 253 15 24 8 334 38
285 280 285 288 287 289 294 302 310 307 324 322 313 246 265 280 321 302 320 325 327 297 304 311 305 63 330 336 303 286 294 82 333 228 224 196 162 28 226 266 286 295 16 9 10 10 30
302 293 285 284 286 289 294 306 304 304 304 321 313 277 242 297 253 312 329 314 321 322 307 323 2 7 14 276 260 265 276 294 187 266 83 57 113 133 292 269 258 33 1 339 287 248 360
294 296 295 286 284 289 294 305 291 287 284 297 313 278 241 253 279 301 289 306 291 285 288 290 343 341 215 274 294 259 275 340 353 159 116 46 42 215 215 242 277 8 353 333 19 317 346
294 296 296 289 286 289 286 300 286 273 283 280 311 304 236 252 282 284 273 273 273 283 275 329 326 11 318 289 322 331 341 335 338 328 22 166 209 210 233 236 286 8 16 359 271 311 324
301 297 299 289 283 281 281 291 288 264 275 265 302 313 258 241 262 283 282 267 257 260 270 295 301 318 328 355 7 333 340 330 347 294 342 91 169 214 233 260 77 5 312 332 334 328 321